DELTA 4 R/B, 35492

Orbit data source: Space-Track

DELTA 4 R/B, 35492 is space debris in HEO originally from a launch on Sat, 27 Jun 2009 UTC launched from the Air Force Eastern Test Range (AFETR). Debris objects in space refer to the collection of defunct objects orbiting the Earth. Examples of debris include non-operational satellites, rocket bodies, and fragments generated from explosions, collisions, or faulty payload assembly.

Loading next visibility...
Identifier
35492, 2009-033B
Orbit
HEO
Country
Flag of USUS
Related business
Flag of USUnited Launch Alliance/Lockheed Martin (US)
Manufacturer
ULA Decatur
Mission
Spacecraft
Bus & Motor
DCSS-4, RL10B-2
Mass
2,850 kg wet, 2,850 kg dry
Launch date (UTC)
2009-06-27 (17 years ago)
Launch vehicle
Unknown
Launch site
Air Force Eastern Test Range (AFETR)
Object type
Payload
Rocket body
Debris
Shape & HBR
Cyl + 1 Nozzle, 6.0 m
Radar Cross Section
43.982 m², Large (>1 m²)

Expand to show TLE details & history
Last TLE update: 13 hours ago

TLE from 13 hours ago
0 DELTA 4 R/B
1 35492U 09033B   26061.65771909 -.00000072  00000-0  00000+0 0  9996
2 35492  12.9759  93.7553 5209721 106.3789 328.9996  1.93160443117703
Epoch: 2026-03-02T15:47Z
TLE epoch observation values (Epoch: 2026-03-02T15:47:06.929Z)
Latitude
4.39506°
Longitude
76.1277°
Altitude
12,787.706 km
Speed
5.192 km/s
True Right ascension
07h 33m 25s
True Declination
4° 23' 07"
Sunlit
Object was in daylight at epoch
Visualization orbit readout
Latitude
Unknown
Longitude
Unknown
Altitude
Unknown
Speed
Unknown
Apparent Right ascension
Unknown
Apparent Declination
Unknown
Sunlit
N/A
Visualization observer readout
Local Sidereal Time
08:42:00
Azimuth
Unknown
Elevation
Unknown
Doppler factor
Unknown
Orbital elements
Apogee altitude
35,048.806 km
Perigee altitude
6,669.217 km
Semi-major axis
27,237.149 km
Eccentricity
0.52097
Inclination
12.9759°
RAAN
93.7553°
Arg. of periapsis
106.3789°
True anomaly
273.52366°
Mean anomaly
328.9996°
Eccentric anomaly
304.35802°
Mean motion
0.48284 °/min
Orbital period
745.59 mins
BSTAR
0
Loading maneuver chart data...
Computing Atmospheric mass density...
Loading historical data...
Loading historical data...
Loading historical data...
Loading historical data...
Loading historical data...
Loading historical data...
Loading historical data...
Other satellites on launch #33 in the year 2009 (2009-06-27 UTC)

Documentation

Showing up to 5 results
|